Wheeling, WV

5:51 PM EST on December 17, 2017 (GMT -0500)
Wheeling-Ohio County

Weather History for KHLG - April, 2013

Change the Weather History Date:

Wednesday, April 17, 2013

  Actual Average Record
Temperature  
Mean Temperature 58 °F 52 °F  
Max Temperature 63 °F 62 °F 84 °F (2002)
Min Temperature 52 °F 42 °F 28 °F (2001)
Degree Days  
Heating Degree Days 7 13  
Month to date heating degree days 228 273  
Since 1 July heating degree days 5126 5213  
Cooling Degree Days 0    
Month to date cooling degree days 13  
Year to date cooling degree days 13  
Growing Degree Days 7 (Base 50)    
Moisture  
Dew Point 53 °F    
Average Humidity 86    
Maximum Humidity 100    
Minimum Humidity 72    
Precipitation  
Precipitation 0.00 in 0.09 in 0.42 in (1992)
Month to date precipitation 1.16 1.72  
Sea Level Pressure  
Sea Level Pressure 30.19 in    
Wind  
Wind Speed 6 mph (NE)    
Max Wind Speed 13 mph    
Max Gust Speed 28 mph    
Visibility 5 miles    
Events Fog    
T = Trace of Precipitation, MM = Missing Value Source: NWS Daily Summary

Daily Weather History Graph

Daily Weather History Graph

Search for Another Location

Airport or City:

Trip Planner

Search our weather history database for the weather conditions in past years. The results will help you decide how hot, cold, wet, or windy it might be!

Date:

Astronomy

Apr. 17, 2013 Rise Set
Actual Time 6:41 AM EDT 8:03 PM EDT
Civil Twilight 6:12 AM EDT 8:31 PM EDT
Nautical Twilight 5:39 AM EDT 9:06 PM EDT
Astronomical Twilight 5:03 AM EDT 9:41 PM EDT
Moon 11:53 AM EDT 1:40 AM EDT
Length of Visible Light 14h 19m
Length of Day
13h 22m
Waxing Crescent, 42% of the Moon is Illuminated
Apr 17
Waxing Crescent
Apr 18
First Quarter
Apr 25
Full
May 2
Last Quarter
May 9
New

Hourly Weather History & Observations

Time (EDT) Temp. Dew Point Humidity Pressure Visibility Wind Dir Wind Speed Gust Speed Precip Events Conditions
12:00 AM 57.2 °F 55.4 °F 94% 30.17 in 0.8 mi NE 3.5 mph - N/A   Mist
12:04 AM 55.4 °F 55.4 °F 100% 30.17 in 1.0 mi NE 3.5 mph - N/A   Scattered Clouds
12:09 AM 57.2 °F 55.4 °F 94% 30.17 in 3.0 mi NE 3.5 mph - N/A   Scattered Clouds
12:16 AM 57.2 °F 55.4 °F 94% 30.17 in 5.0 mi NE 4.6 mph - N/A   Mostly Cloudy
12:26 AM 55.4 °F 55.4 °F 100% 30.17 in 1.8 mi NE 3.5 mph - N/A   Mostly Cloudy
12:33 AM 55.4 °F 55.4 °F 100% 30.17 in 1.0 mi North 3.5 mph - N/A   Overcast
12:35 AM 55.4 °F 55.4 °F 100% 30.17 in 0.5 mi North 5.8 mph - N/A Fog Fog
12:51 AM 55.4 °F 55.4 °F 100% 30.16 in 0.2 mi NNE 4.6 mph - N/A Fog Fog
12:53 AM 55.0 °F 55.0 °F 100% 30.16 in 0.2 mi NE 3.5 mph - N/A Fog Fog
1:08 AM 55.4 °F 53.6 °F 94% 30.16 in 0.2 mi East 3.5 mph - N/A Fog Fog
1:21 AM 55.4 °F 53.6 °F 94% 30.16 in 0.5 mi Calm Calm - N/A Fog Fog
1:32 AM 55.4 °F 53.6 °F 94% 30.16 in 1.0 mi Calm Calm - N/A   Mist
1:36 AM 55.4 °F 53.6 °F 94% 30.17 in 0.5 mi Calm Calm - N/A Fog Fog
1:53 AM 54.0 °F 54.0 °F 100% 30.18 in 0.2 mi NNW 5.8 mph - N/A Fog Fog
2:13 AM 55.4 °F 53.6 °F 94% 30.17 in 0.2 mi NE 3.5 mph - N/A Fog Fog
2:53 AM 55.0 °F 54.0 °F 96% 30.16 in 0.2 mi North 6.9 mph - N/A Fog Fog
3:03 AM 55.4 °F 53.6 °F 94% 30.17 in 0.2 mi North 4.6 mph - N/A Fog Fog
3:17 AM 55.4 °F 53.6 °F 94% 30.17 in 1.0 mi North 5.8 mph - N/A   Mist
3:32 AM 53.6 °F 53.6 °F 100% 30.17 in 3.0 mi NNE 5.8 mph - N/A   Overcast
3:53 AM 54.0 °F 54.0 °F 100% 30.18 in 2.5 mi North 4.6 mph - N/A   Overcast
4:53 AM 53.1 °F 52.0 °F 96% 30.21 in 3.0 mi NW 8.1 mph - N/A   Overcast
5:00 AM 53.6 °F 51.8 °F 94% 30.20 in 3.0 mi North 4.6 mph - N/A   Overcast
5:16 AM 53.6 °F 51.8 °F 94% 30.19 in 4.0 mi NE 5.8 mph - N/A   Overcast
5:53 AM 53.1 °F 51.1 °F 93% 30.19 in 5.0 mi NE 6.9 mph - N/A   Overcast
6:21 AM 53.6 °F 51.8 °F 94% 30.21 in 7.0 mi NNE 3.5 mph - N/A   Overcast
6:42 AM 51.8 °F 51.8 °F 100% 30.21 in 6.0 mi NNE 3.5 mph - N/A   Overcast
6:53 AM 52.0 °F 50.0 °F 93% 30.22 in 5.0 mi NNE 4.6 mph - N/A   Overcast
7:53 AM 52.0 °F 50.0 °F 93% 30.24 in 6.0 mi NNE 6.9 mph - N/A   Overcast
8:53 AM 52.0 °F 48.9 °F 89% 30.25 in 9.0 mi NE 6.9 mph - N/A   Overcast
9:07 AM 51.8 °F 48.2 °F 88% 30.25 in 9.0 mi NNE 5.8 mph - N/A   Overcast
10:53 AM 53.1 °F 48.0 °F 83% 30.27 in 10.0 mi NE 6.9 mph - N/A   Overcast
11:46 AM 55.4 °F 50.0 °F 82% 30.25 in 10.0 mi Variable 4.6 mph - N/A   Overcast
11:53 AM 55.9 °F 50.0 °F 80% 30.26 in 10.0 mi East 3.5 mph - N/A   Overcast
12:53 PM 57.9 °F 51.1 °F 78% 30.24 in 10.0 mi NE 5.8 mph - N/A   Overcast
1:53 PM 59.0 °F 51.1 °F 75% 30.24 in 10.0 mi North 3.5 mph - N/A   Overcast
2:53 PM 60.1 °F 52.0 °F 75% 30.23 in 10.0 mi NE 5.8 mph - N/A   Overcast
3:53 PM 62.1 °F 53.1 °F 72% 30.19 in 10.0 mi East 6.9 mph - N/A   Overcast
4:53 PM 62.1 °F 54.0 °F 75% 30.18 in 10.0 mi East 5.8 mph - N/A   Overcast
5:41 PM 62.6 °F 53.6 °F 72% 30.17 in 10.0 mi ENE 5.8 mph - N/A   Overcast
5:53 PM 63.0 °F 53.1 °F 70% 30.17 in 10.0 mi SE 3.5 mph - N/A   Overcast
6:53 PM 63.0 °F 54.0 °F 72% 30.16 in 10.0 mi ESE 5.8 mph - N/A   Overcast
7:53 PM 61.0 °F 53.1 °F 75% 30.14 in 10.0 mi ESE 5.8 mph - N/A   Partly Cloudy
8:53 PM 60.1 °F 53.1 °F 78% 30.16 in 10.0 mi ESE 5.8 mph - N/A   Clear
9:53 PM 60.1 °F 54.0 °F 80% 30.14 in 10.0 mi East 6.9 mph - N/A   Clear
10:53 PM 59.0 °F 54.0 °F 83% 30.10 in 10.0 mi ESE 10.4 mph - N/A   Clear
11:53 PM 60.1 °F 54.0 °F 80% 30.11 in 10.0 mi ESE 5.8 mph - N/A   Clear